OK,87,47,758,87,2014-10-01T01:40:00,0,28072085,183037
OK,87,47,758,87,2014-10-01T01:45:00,0,28072528,183037
OK,87,47,758,87,2014-10-01T01:50:00,0,28072977,183037
OK,87,47,758,87,2014-10-01T01:55:00,0,28073424,183037
OK,87,47,758,87,2014-10-01T02:05:00,0,28074190,183037
OK,88,47,758,88,2014-10-01T02:10:00,1,28074639,183037
OK,88,47,758,88,2014-10-01T02:15:00,1,28075079,183037
OK,88,47,758,88,2014-10-01T02:20:00,0,28075528,183037
OK,63,65,758,63,2014-10-01T02:25:00,1,28075977,183037
OK,63,65,758,63,2014-10-01T02:30:00,0,28076360,183037
OK,63,65,758,63,2014-10-01T02:35:00,0,28076809,183037
OK,63,65,758,63,2014-10-01T02:40:00,0,28077258,183037
OK,63,65,758,63,2014-10-01T02:45:00,0,28077706,183037
OK,63,65,758,63,2014-10-01T02:50:00,0,28078110,183037
OK,63,65,758,63,2014-10-01T02:55:00,0,28078559,183037
OK,63,65,758,63,2014-10-01T03:00:00,0,28079004,183037
OK,63,65,758,63,2014-10-01T03:05:00,0,28079452,183037
OK,63,65,758,63,2014-10-01T03:10:00,0,28079895,183037
OK,83,49,758,83,2014-10-01T03:20:00,2,28080678,183037
OK,68,60,758,68,2014-10-01T03:25:00,1,28081127,183037
OK,79,52,758,79,2014-10-01T03:30:00,1,28081575,183037
OK,79,52,758,79,2014-10-01T03:35:00,1,28082023,183037
OK,79,52,758,79,2014-10-01T03:40:00,0,28082472,183037
OK,130,31,758,130,2014-10-01T03:45:00,2,28082905,183037
OK,91,45,758,91,2014-10-01T03:50:00,4,28083337,183037
OK,90,46,758,90,2014-10-01T03:55:00,3,28083786,183037
OK,83,49,758,83,2014-10-01T04:00:00,2,28084235,183037
OK,83,49,758,83,2014-10-01T04:05:00,2,28084676,183037
OK,83,49,758,83,2014-10-01T04:10:00,0,28085101,183037
OK,110,37,758,110,2014-10-01T04:15:00,1,28085550,183037
OK,110,37,758,110,2014-10-01T04:20:00,3,28085995,183037
OK,99,41,758,99,2014-10-01T04:25:00,3,28086444,183037
OK,98,42,758,98,2014-10-01T04:30:00,2,28086886,183037
OK,98,42,758,98,2014-10-01T04:35:00,0,28087335,183037
OK,112,37,758,112,2014-10-01T04:40:00,6,28087780,183037
OK,112,37,758,112,2014-10-01T04:45:00,11,28088229,183037
OK,91,45,758,91,2014-10-01T04:50:00,12,28088653,183037
OK,91,45,758,91,2014-10-01T04:55:00,11,28089102,183037
OK,118,35,758,118,2014-10-01T05:00:00,9,28089532,183037
OK,103,40,758,103,2014-10-01T05:05:00,10,28089981,183037
OK,103,40,758,103,2014-10-01T05:10:00,16,28090430,183037
OK,118,35,758,118,2014-10-01T05:15:00,11,28090774,183037
OK,122,33,758,122,2014-10-01T05:20:00,12,28091223,183037
OK,126,32,758,126,2014-10-01T05:25:00,8,28091672,183037
OK,128,32,758,128,2014-10-01T05:30:00,10,28092089,183037
OK,112,37,758,112,2014-10-01T05:35:00,16,28092538,183037
OK,153,27,758,153,2014-10-01T05:40:00,25,28092982,183037
OK,163,25,758,163,2014-10-01T05:45:00,19,28093423,183037
OK,155,26,758,155,2014-10-01T05:50:00,14,28093854,183037
OK,157,26,758,157,2014-10-01T05:55:00,21,28094302,183037
OK,155,26,758,155,2014-10-01T06:00:00,16,28094714,183037
OK,187,22,758,187,2014-10-01T06:05:00,6,28095159,183037
OK,169,24,758,169,2014-10-01T06:10:00,14,28095606,183037
OK,150,27,758,150,2014-10-01T06:15:00,17,28096055,183037
OK,156,26,758,156,2014-10-01T06:20:00,12,28096468,183037
OK,127,32,758,127,2014-10-01T06:25:00,14,28096917,183037
OK,126,32,758,126,2014-10-01T06:30:00,18,28097351,183037
OK,126,32,758,126,2014-10-01T06:35:00,22,28097800,183037
OK,121,34,758,121,2014-10-01T06:40:00,13,28098249,183037
OK,119,34,758,119,2014-10-01T06:45:00,15,28098686,183037
OK,118,35,758,118,2014-10-01T06:50:00,15,28099130,183037
OK,94,44,758,94,2014-10-01T07:00:00,9,28099921,183037
OK,109,38,758,109,2014-10-01T07:10:00,7,28100677,183037
OK,95,43,758,95,2014-10-01T07:20:00,7,28101497,183037
OK,93,44,758,93,2014-10-01T07:25:00,6,28101946,183037
OK,102,40,758,102,2014-10-01T07:30:00,8,28102382,183037
OK,105,39,758,105,2014-10-01T07:35:00,8,28102831,183037
OK,135,30,758,135,2014-10-01T07:40:00,7,28103258,183037
OK,143,29,758,143,2014-10-01T07:45:00,9,28103705,183037
OK,134,30,758,134,2014-10-01T07:50:00,12,28104150,183037
OK,100,41,758,100,2014-10-01T07:55:00,12,28104595,183037
OK,91,45,758,91,2014-10-01T08:00:00,10,28105036,183037
OK,110,37,758,110,2014-10-01T08:05:00,7,28105481,183037
OK,129,32,758,129,2014-10-01T08:10:00,7,28105921,183037
OK,127,32,758,127,2014-10-01T08:15:00,7,28106370,183037
OK,96,43,758,96,2014-10-01T08:20:00,11,28106805,183037
OK,107,38,758,107,2014-10-01T08:30:00,7,28107645,183037
OK,119,34,758,119,2014-10-01T08:35:00,4,28108094,183037
OK,126,32,758,126,2014-10-01T08:40:00,8,28108533,183037
OK,134,30,758,134,2014-10-01T08:45:00,8,28108982,183037
OK,87,47,758,87,2014-10-01T08:50:00,9,28109410,183037
OK,110,37,758,110,2014-10-01T09:00:00,4,28110202,183037
OK,114,36,758,114,2014-10-01T09:05:00,7,28110651,183037
OK,105,39,758,105,2014-10-01T09:10:00,10,28111074,183037
OK,90,46,758,90,2014-10-01T09:15:00,5,28111523,183037
OK,83,49,758,83,2014-10-01T09:20:00,0,28111952,183037
OK,96,43,758,96,2014-10-01T09:30:00,3,28112742,183037
OK,99,41,758,99,2014-10-01T09:35:00,6,28113191,183037
OK,132,31,758,132,2014-10-01T09:40:00,5,28113615,183037
OK,136,30,758,136,2014-10-01T09:45:00,5,28114064,183037
OK,217,19,758,217,2014-10-01T09:50:00,1,28114496,183037
OK,130,31,758,130,2014-10-01T10:00:00,9,28115299,183037
OK,135,30,758,135,2014-10-01T10:05:00,10,28115748,183037
OK,117,35,758,117,2014-10-01T10:10:00,6,28116160,183037
OK,109,38,758,109,2014-10-01T10:15:00,9,28116609,183037
OK,91,45,758,91,2014-10-01T10:20:00,12,28117017,183037
OK,79,52,758,79,2014-10-01T10:25:00,7,28117466,183037
OK,105,39,758,105,2014-10-01T10:30:00,6,28117891,183037
OK,120,34,758,120,2014-10-01T10:35:00,9,28118340,183037
OK,144,28,758,144,2014-10-01T10:40:00,7,28118785,183037
OK,123,33,758,123,2014-10-01T10:45:00,9,28119232,183037
OK,120,34,758,120,2014-10-01T10:50:00,6,28119676,183037
OK,101,41,758,101,2014-10-01T10:55:00,8,28120124,183037
OK,101,41,758,101,2014-10-01T11:00:00,9,28120572,183037
OK,108,38,758,108,2014-10-01T11:10:00,18,28121404,183037
OK,117,35,758,117,2014-10-01T11:15:00,13,28121853,183037
OK,95,43,758,95,2014-10-01T11:20:00,11,28122291,183037
OK,104,39,758,104,2014-10-01T11:25:00,12,28122740,183037
OK,114,36,758,114,2014-10-01T11:30:00,10,28123181,183037
OK,120,34,758,120,2014-10-01T11:35:00,8,28123630,183037
OK,111,37,758,111,2014-10-01T11:40:00,9,28124062,183037
OK,105,39,758,105,2014-10-01T11:45:00,7,28124511,183037
OK,111,37,758,111,2014-10-01T11:50:00,4,28124913,183037
OK,98,42,758,98,2014-10-01T11:55:00,8,28125362,183037
OK,131,31,758,131,2014-10-01T12:00:00,12,28125791,183037
OK,103,40,758,103,2014-10-01T12:10:00,3,28126592,183037
OK,104,39,758,104,2014-10-01T12:15:00,6,28127041,183037
OK,106,39,758,106,2014-10-01T12:20:00,11,28127490,183037
OK,113,36,758,113,2014-10-01T12:25:00,5,28127939,183037
OK,92,45,758,92,2014-10-01T12:30:00,3,28128367,183037
OK,94,44,758,94,2014-10-01T12:35:00,6,28128816,183037
OK,93,44,758,93,2014-10-01T12:40:00,9,28129251,183037
OK,111,37,758,111,2014-10-01T12:45:00,6,28129700,183037
OK,125,33,758,125,2014-10-01T12:50:00,6,28130134,183037
OK,95,43,758,95,2014-10-01T12:55:00,3,28130583,183037
OK,93,44,758,93,2014-10-01T13:00:00,4,28131011,183037
OK,130,31,758,130,2014-10-01T13:05:00,3,28131460,183037
OK,128,32,758,128,2014-10-01T13:10:00,12,28131897,183037
OK,117,35,758,117,2014-10-01T13:15:00,14,28132346,183037
OK,110,37,758,110,2014-10-01T13:20:00,8,28132784,183037
OK,143,29,758,143,2014-10-01T13:25:00,13,28133230,183037
OK,112,37,758,112,2014-10-01T13:30:00,10,28133669,183037
OK,159,26,758,159,2014-10-01T13:40:00,3,28134557,183037
OK,138,30,758,138,2014-10-01T13:50:00,5,28135425,183037
OK,144,28,758,144,2014-10-01T14:00:00,9,28136311,183037
OK,144,28,758,144,2014-10-01T14:05:00,7,28136760,183037
OK,100,41,758,100,2014-10-01T14:10:00,10,28137200,183037
OK,110,37,758,110,2014-10-01T14:15:00,6,28137649,183037
OK,128,32,758,128,2014-10-01T14:20:00,4,28138083,183037
OK,140,29,758,140,2014-10-01T14:30:00,12,28138960,183037
OK,133,31,758,133,2014-10-01T14:40:00,9,28139820,183037
OK,135,30,758,135,2014-10-01T14:45:00,13,28140269,183037
OK,112,37,758,112,2014-10-01T14:50:00,10,28140711,183037
OK,102,40,758,102,2014-10-01T15:00:00,10,28141586,183037
OK,94,44,758,94,2014-10-01T15:05:00,3,28142035,183037
OK,172,24,758,172,2014-10-01T15:10:00,5,28142463,183037
OK,159,26,758,159,2014-10-01T15:15:00,8,28142912,183037
OK,118,35,758,118,2014-10-01T15:20:00,2,28143339,183037
OK,119,34,758,119,2014-10-01T15:25:00,5,28143788,183037
OK,111,37,758,111,2014-10-01T15:30:00,12,28144236,183037
OK,135,30,758,135,2014-10-01T15:35:00,9,28144685,183037
OK,100,41,758,100,2014-10-01T15:45:00,7,28145520,183037
OK,112,37,758,112,2014-10-01T15:50:00,3,28145969,183037
OK,108,38,758,108,2014-10-01T15:55:00,9,28146418,183037
OK,112,37,758,112,2014-10-01T16:00:00,10,28146867,183037
OK,97,42,758,97,2014-10-01T16:05:00,2,28147275,183037
OK,95,43,758,95,2014-10-01T16:10:00,5,28147719,183037
OK,99,41,758,99,2014-10-01T16:20:00,8,28148569,183037
OK,106,39,758,106,2014-10-01T16:25:00,8,28149018,183037
OK,110,37,758,110,2014-10-01T16:30:00,8,28149457,183037
OK,110,37,758,110,2014-10-01T16:35:00,5,28149906,183037
OK,105,39,758,105,2014-10-01T16:40:00,5,28150332,183037
OK,99,41,758,99,2014-10-01T16:45:00,6,28150781,183037
OK,125,33,758,125,2014-10-01T16:50:00,4,28151199,183037
OK,115,36,758,115,2014-10-01T16:55:00,8,28151648,183037
OK,98,42,758,98,2014-10-01T17:05:00,3,28152097,183037
OK,83,49,758,83,2014-10-01T17:10:00,3,28152546,183037
OK,81,51,758,81,2014-10-01T17:15:00,6,28152992,183037
OK,117,35,758,117,2014-10-01T17:20:00,5,28153439,183037
OK,117,35,758,117,2014-10-01T17:25:00,3,28153888,183037
OK,144,28,758,144,2014-10-01T17:30:00,1,28154298,183037
OK,73,56,758,73,2014-10-01T17:35:00,3,28154747,183037
OK,71,58,758,71,2014-10-01T17:40:00,4,28155189,183037
OK,138,30,758,138,2014-10-01T17:45:00,1,28155637,183037
OK,90,46,758,90,2014-10-01T17:50:00,5,28156055,183037
OK,86,48,758,86,2014-10-01T17:55:00,4,28156504,183037
OK,80,51,758,80,2014-10-01T18:00:00,1,28156952,183037
OK,83,49,758,83,2014-10-01T18:05:00,1,28157391,183037
OK,83,49,758,83,2014-10-01T18:10:00,1,28157820,183037
OK,91,45,758,91,2014-10-01T18:15:00,2,28158269,183037
OK,91,45,758,91,2014-10-01T18:20:00,2,28158713,183037
OK,105,39,758,105,2014-10-01T18:25:00,4,28159158,183037
OK,98,42,758,98,2014-10-01T18:35:00,0,28159940,183037
OK,90,46,758,90,2014-10-01T18:40:00,2,28160389,183037
OK,78,53,758,78,2014-10-01T18:45:00,1,28160838,183037
OK,78,53,758,78,2014-10-01T18:50:00,0,28161276,183037
OK,101,41,758,101,2014-10-01T18:55:00,1,28161721,183037
OK,101,41,758,101,2014-10-01T19:00:00,2,28162142,183037
OK,64,64,758,64,2014-10-01T19:05:00,1,28162591,183037
OK,76,54,758,76,2014-10-01T19:10:00,2,28162985,183037
OK,83,49,758,83,2014-10-01T19:15:00,3,28163424,183037
OK,85,48,758,85,2014-10-01T19:20:00,2,28163872,183037
OK,97,42,758,97,2014-10-01T19:25:00,2,28164320,183037
OK,107,38,758,107,2014-10-01T19:30:00,0,28164752,183037
OK,127,32,758,127,2014-10-01T19:35:00,2,28165200,183037
OK,98,42,758,98,2014-10-01T19:40:00,2,28165626,183037
OK,107,38,758,107,2014-10-01T19:45:00,2,28166073,183037
OK,130,31,758,130,2014-10-01T19:50:00,1,28166877,183037
OK,79,52,758,79,2014-10-01T20:00:00,2,28167319,183037
OK,79,52,758,79,2014-10-01T20:05:00,0,28168188,183037
OK,79,52,758,79,2014-10-01T20:10:00,0,28168633,183037
OK,79,52,758,79,2014-10-01T20:15:00,0,28169082,183037
OK,102,40,758,102,2014-10-01T20:25:00,1,28169531,183037
OK,61,67,758,61,2014-10-01T20:30:00,1,28170401,183037
OK,61,67,758,61,2014-10-01T20:40:00,0,28170849,183037
OK,84,49,758,84,2014-10-01T20:45:00,1,28171732,183037
OK,117,35,758,117,2014-10-01T20:50:00,2,28172180,183037
OK,117,35,758,117,2014-10-01T20:55:00,4,28172626,183037
OK,118,35,758,118,2014-10-01T21:00:00,2,28173072,183037
OK,64,64,758,64,2014-10-01T21:05:00,0,28173521,183037
OK,64,64,758,64,2014-10-01T21:10:00,0,28173962,183037
OK,64,64,758,64,2014-10-01T21:15:00,0,28174411,183037
OK,64,64,758,64,2014-10-01T21:20:00,0,28174839,183037
OK,64,64,758,64,2014-10-01T21:25:00,0,28175233,183037
OK,64,64,758,64,2014-10-01T21:30:00,0,28175682,183037
OK,64,64,758,64,2014-10-01T21:35:00,0,28176131,183037
OK,91,45,758,91,2014-10-01T21:45:00,0,28176580,183037
OK,91,45,758,91,2014-10-01T21:50:00,0,28177376,183037
OK,91,45,758,91,2014-10-01T21:55:00,0,28177822,183037
OK,91,45,758,91,2014-10-01T22:05:00,0,28178271,183037
OK,66,62,758,66,2014-10-01T22:10:00,1,28178720,183037
OK,66,62,758,66,2014-10-01T22:15:00,0,28179167,183037
OK,66,62,758,66,2014-10-01T22:25:00,0,28180044,183037
OK,66,62,758,66,2014-10-01T22:30:00,0,28180889,183037
OK,66,62,758,66,2014-10-01T22:35:00,0,28181313,183037
OK,66,62,758,66,2014-10-01T22:40:00,0,28181761,183037
OK,66,62,758,66,2014-10-01T22:45:00,0,28182208,183037
OK,66,62,758,66,2014-10-01T22:50:00,0,28182657,183037
OK,66,62,758,66,2014-10-01T22:55:00,0,28183077,183037
OK,66,62,758,66,2014-10-01T23:00:00,0,28183507,183037
OK,66,62,758,66,2014-10-01T23:05:00,0,28183952,183037
OK,66,62,758,66,2014-10-01T23:10:00,0,28184401,183037
OK,87,47,758,87,2014-10-01T23:15:00,1,28184836,183037
OK,87,47,758,87,2014-10-01T23:20:00,0,28185284,183037
OK,87,47,758,87,2014-10-01T23:25:00,0,28185715,183037
OK,87,47,758,87,2014-10-01T23:30:00,0,28186107,183037
OK,87,47,758,87,2014-10-01T23:35:00,0,28186556,183037
OK,87,47,758,87,2014-10-01T23:40:00,0,28186954,183037
OK,87,47,758,87,2014-10-01T23:45:00,0,28187396,183037
OK,87,47,758,87,2014-10-01T23:50:00,0,28187845,183037
OK,87,47,758,87,2014-10-01T23:55:00,0,28188286,183037
OK,87,47,758,87,2014-10-02T00:00:00,0,28188722,183037
OK,87,47,758,87,2014-10-02T00:10:00,0,28189171,183037
OK,87,47,758,87,2014-10-02T00:15:00,0,28189620,183037
OK,87,47,758,87,2014-10-02T00:20:00,0,28190042,183037
OK,87,47,758,87,2014-10-02T00:30:00,0,28190844,183037
OK,87,47,758,87,2014-10-02T00:35:00,0,28191293,183037
OK,87,47,758,87,2014-10-02T00:45:00,0,28192048,183037
OK,87,47,758,87,2014-10-02T00:50:00,0,28192497,183037
OK,87,47,758,87,2014-10-02T00:55:00,0,28192929,183037
OK,87,47,758,87,2014-10-02T01:00:00,0,28193741,183037
OK,87,47,758,87,2014-10-02T01:10:00,0,28194190,183037
OK,87,47,758,87,2014-10-02T01:15:00,0,28194639,183037
OK,87,47,758,87,2014-10-02T01:25:00,0,28195324,183037
OK,87,47,758,87,2014-10-02T01:30:00,0,28195773,183037
OK,87,47,758,87,2014-10-02T01:35:00,0,28196222,183037
OK,87,47,758,87,2014-10-02T01:40:00,0,28196506,183037
OK,87,47,758,87,2014-10-02T01:50:00,0,28197378,183037
OK,95,43,758,95,2014-10-02T01:55:00,0,28197827,183037
OK,95,43,758,95,2014-10-02T02:00:00,0,28198275,183037
OK,95,43,758,95,2014-10-02T02:05:00,0,28198723,183037
OK,95,43,758,95,2014-10-02T02:10:00,0,28199172,183037
OK,70,59,758,70,2014-10-02T02:15:00,1,28199543,183037
OK,70,59,758,70,2014-10-02T02:20:00,0,28200426,183037
OK,70,59,758,70,2014-10-02T02:30:00,0,28200871,183037
OK,70,59,758,70,2014-10-02T02:45:00,0,28201751,183037
OK,70,59,758,70,2014-10-02T02:50:00,0,28202200,183037
OK,70,59,758,70,2014-10-02T02:55:00,0,28202647,183037
OK,70,59,758,70,2014-10-02T03:00:00,0,28203091,183037
OK,70,59,758,70,2014-10-02T03:10:00,0,28203974,183037
OK,52,79,758,52,2014-10-02T03:30:00,0,28204423,183037
OK,52,79,758,52,2014-10-02T03:35:00,0,28204872,183037
OK,52,79,758,52,2014-10-02T03:40:00,0,28205320,183037
OK,77,53,758,77,2014-10-02T03:45:00,0,28205749,183037
OK,77,53,758,77,2014-10-02T03:55:00,0,28206579,183037
OK,77,53,758,77,2014-10-02T04:00:00,0,28207028,183037
OK,77,53,758,77,2014-10-02T04:05:00,0,28207476,183037
OK,77,53,758,77,2014-10-02T04:10:00,0,28207896,183037
OK,77,53,758,77,2014-10-02T04:15:00,0,28208345,183037
OK,97,42,758,97,2014-10-02T04:20:00,1,28208772,183037
OK,97,42,758,97,2014-10-02T04:25:00,1,28209221,183037
OK,119,34,758,119,2014-10-02T04:30:00,5,28209659,183037
OK,119,34,758,119,2014-10-02T04:35:00,3,28210108,183037
OK,124,33,758,124,2014-10-02T04:40:00,6,28210531,183037
OK,111,37,758,111,2014-10-02T04:45:00,0,28210980,183037
OK,111,37,758,111,2014-10-02T04:50:00,0,28211405,183037
OK,110,37,758,110,2014-10-02T05:00:00,2,28212227,183037
OK,99,41,758,99,2014-10-02T05:05:00,2,28212676,183037
OK,101,41,758,101,2014-10-02T05:10:00,0,28213105,183037
OK,123,33,758,123,2014-10-02T05:15:00,5,28213554,183037
OK,138,30,758,138,2014-10-02T05:20:00,3,28213992,183037
OK,123,33,758,123,2014-10-02T05:25:00,7,28214441,183037
OK,107,38,758,107,2014-10-02T05:30:00,1,28214854,183037
OK,107,38,758,107,2014-10-02T05:35:00,0,28215303,183037
OK,125,33,758,125,2014-10-02T05:40:00,14,28215719,183037
OK,121,34,758,121,2014-10-02T05:45:00,6,28216168,183037
OK,166,24,758,166,2014-10-02T05:50:00,0,28216507,183037
OK,178,23,758,178,2014-10-02T05:55:00,18,28216947,183037
OK,181,22,758,181,2014-10-02T06:00:00,17,28217394,183037
OK,153,27,758,153,2014-10-02T06:05:00,7,28217843,183037
OK,145,28,758,145,2014-10-02T06:10:00,4,28218282,183037
OK,120,34,758,120,2014-10-02T06:15:00,8,28218731,183037
OK,125,33,758,125,2014-10-02T06:20:00,14,28219151,183037
OK,121,34,758,121,2014-10-02T06:30:00,15,28219973,183037
OK,120,34,758,120,2014-10-02T06:35:00,13,28220421,183037
OK,117,35,758,117,2014-10-02T06:40:00,13,28220856,183037
OK,124,33,758,124,2014-10-02T06:45:00,10,28221305,183037
OK,128,32,758,128,2014-10-02T07:05:00,13,28222117,183037
OK,128,32,758,128,2014-10-02T07:10:00,0,28222566,183037
OK,87,47,758,87,2014-10-02T07:15:00,3,28223015,183037
OK,88,47,758,88,2014-10-02T07:20:00,0,28223444,183037
OK,120,34,758,120,2014-10-02T07:25:00,7,28223880,183037
OK,89,46,758,89,2014-10-02T07:35:00,5,28224684,183037
OK,99,41,758,99,2014-10-02T07:40:00,2,28225133,183037
OK,123,33,758,123,2014-10-02T07:50:00,8,28225904,183037
OK,112,37,758,112,2014-10-02T07:55:00,3,28226353,183037
OK,85,48,758,85,2014-10-02T08:00:00,1,28226794,183037
OK,107,38,758,107,2014-10-02T08:05:00,6,28227243,183037
OK,124,33,758,124,2014-10-02T08:10:00,0,28227658,183037
OK,132,31,758,132,2014-10-02T08:20:00,2,28228466,183037
OK,107,38,758,107,2014-10-02T08:25:00,4,28228915,183037
OK,106,39,758,106,2014-10-02T08:30:00,3,28229325,183037
OK,150,27,758,150,2014-10-02T08:40:00,0,28230124,183037
OK,88,47,758,88,2014-10-02T08:50:00,5,28230939,183037
OK,81,51,758,81,2014-10-02T08:55:00,0,28231386,183037
OK,118,35,758,118,2014-10-02T09:00:00,12,28231811,183037
OK,115,36,758,115,2014-10-02T09:15:00,0,28232602,183037
OK,115,36,758,115,2014-10-02T09:20:00,0,28233051,183037
OK,137,30,758,137,2014-10-02T09:25:00,4,28233499,183037
OK,132,31,758,132,2014-10-02T09:30:00,1,28233924,183037
OK,135,30,758,135,2014-10-02T09:40:00,0,28234706,183037
OK,94,44,758,94,2014-10-02T09:45:00,5,28235155,183037
OK,126,32,758,126,2014-10-02T09:50:00,1,28235582,183037
OK,103,40,758,103,2014-10-02T09:55:00,5,28236031,183037
OK,93,44,758,93,2014-10-02T10:00:00,3,28236474,183037
OK,74,56,758,74,2014-10-02T10:10:00,3,28237323,183037
OK,98,42,758,98,2014-10-02T10:15:00,1,28237771,183037
OK,116,35,758,116,2014-10-02T10:20:00,3,28238220,183037
OK,116,35,758,116,2014-10-02T10:25:00,3,28238667,183037
OK,96,43,758,96,2014-10-02T10:30:00,0,28239108,183037
OK,145,28,758,145,2014-10-02T10:35:00,7,28239556,183037
OK,111,37,758,111,2014-10-02T10:40:00,4,28239987,183037
OK,100,41,758,100,2014-10-02T10:45:00,7,28240436,183037
OK,100,41,758,100,2014-10-02T10:50:00,3,28240880,183037
OK,89,46,758,89,2014-10-02T10:55:00,1,28241329,183037
OK,89,46,758,89,2014-10-02T11:00:00,0,28241761,183037
OK,106,39,758,106,2014-10-02T11:10:00,7,28242605,183037
OK,159,26,758,159,2014-10-02T11:15:00,5,28243054,183037
OK,143,29,758,143,2014-10-02T11:20:00,6,28243503,183037
OK,111,37,758,111,2014-10-02T11:25:00,2,28243828,183037
OK,128,32,758,128,2014-10-02T11:30:00,0,28244262,183037
OK,101,41,758,101,2014-10-02T11:35:00,4,28244695,183037
OK,112,37,758,112,2014-10-02T11:40:00,2,28245144,183037
OK,145,28,758,145,2014-10-02T11:50:00,8,28245999,183037
OK,126,32,758,126,2014-10-02T11:55:00,7,28246448,183037
OK,81,51,758,81,2014-10-02T12:00:00,3,28246885,183037
OK,67,61,758,67,2014-10-02T12:05:00,0,28247333,183037
OK,67,61,758,67,2014-10-02T12:10:00,0,28247779,183037
OK,141,29,758,141,2014-10-02T12:15:00,9,28248210,183037
OK,174,23,758,174,2014-10-02T12:20:00,3,28248659,183037
OK,146,28,758,146,2014-10-02T12:25:00,3,28249106,183037
OK,148,28,758,148,2014-10-02T12:30:00,2,28249964,183037
OK,123,33,758,123,2014-10-02T12:35:00,7,28250346,183037
OK,142,29,758,142,2014-10-02T12:45:00,7,28251126,183037
OK,133,31,758,133,2014-10-02T13:20:00,2,28251671,183037
OK,145,28,758,145,2014-10-02T13:30:00,9,28252255,183037
OK,110,37,758,110,2014-10-02T13:35:00,1,28252698,183037
OK,110,37,758,110,2014-10-02T13:40:00,0,28253114,183037
OK,138,30,758,138,2014-10-02T13:50:00,5,28253563,183037
OK,121,34,758,121,2014-10-02T13:55:00,6,28254289,183037
OK,146,28,758,146,2014-10-02T14:10:00,6,28254866,183037
OK,142,29,758,142,2014-10-02T14:20:00,9,28255315,183037
OK,146,28,758,146,2014-10-02T14:25:00,0,28256192,183037
OK,137,30,758,137,2014-10-02T14:30:00,7,28256622,183037
OK,117,35,758,117,2014-10-02T14:40:00,9,28257069,183037
OK,121,34,758,121,2014-10-02T14:50:00,4,28257958,183037
OK,114,36,758,114,2014-10-02T14:55:00,5,28258837,183037
OK,116,35,758,116,2014-10-02T15:00:00,3,28259286,183037
OK,124,33,758,124,2014-10-02T15:05:00,3,28259734,183037
OK,128,32,758,128,2014-10-02T15:10:00,8,28260167,183037
OK,126,32,758,126,2014-10-02T15:15:00,9,28260615,183037
OK,127,32,758,127,2014-10-02T15:20:00,2,28261055,183037
OK,164,25,758,164,2014-10-02T15:25:00,3,28261437,183037
OK,193,21,758,193,2014-10-02T15:30:00,1,28261867,183037
OK,101,41,758,101,2014-10-02T15:35:00,13,28262314,183037
OK,101,41,758,101,2014-10-02T15:40:00,7,28262761,183037
OK,95,43,758,95,2014-10-02T15:45:00,13,28263198,183037
OK,98,42,758,98,2014-10-02T15:50:00,5,28263639,183037
OK,105,39,758,105,2014-10-02T15:55:00,0,28264041,183037
OK,105,39,758,105,2014-10-02T16:00:00,0,28264490,183037
OK,132,31,758,132,2014-10-02T16:05:00,7,28264929,183037
OK,128,32,758,128,2014-10-02T16:10:00,6,28265369,183037
OK,124,33,758,124,2014-10-02T16:15:00,1,28265764,183037
OK,118,35,758,118,2014-10-02T16:20:00,7,28266213,183037
OK,101,41,758,101,2014-10-02T16:30:00,11,28266662,183037
OK,101,41,758,101,2014-10-02T16:35:00,5,28267434,183037
OK,97,42,758,97,2014-10-02T16:40:00,0,28267883,183037
OK,109,38,758,109,2014-10-02T16:45:00,6,28268325,183037
OK,77,53,758,77,2014-10-02T16:50:00,2,28268774,183037
OK,131,31,758,131,2014-10-02T16:55:00,3,28269223,183037
OK,79,52,758,79,2014-10-02T17:00:00,1,28269661,183037
OK,92,45,758,92,2014-10-02T17:05:00,1,28270107,183037
OK,92,45,758,92,2014-10-02T17:10:00,1,28270541,183037
OK,92,45,758,92,2014-10-02T17:15:00,0,28270990,183037
OK,110,37,758,110,2014-10-02T17:20:00,4,28271423,183037
OK,86,48,758,86,2014-10-02T17:30:00,1,28271868,183037
OK,86,48,758,86,2014-10-02T17:35:00,0,28272746,183037
OK,86,48,758,86,2014-10-02T17:40:00,0,28273193,183037
OK,102,40,758,102,2014-10-02T17:45:00,0,28273640,183037
OK,83,49,758,83,2014-10-02T17:55:00,4,28274088,183037
OK,70,59,758,70,2014-10-02T18:00:00,3,28274862,183037
OK,70,59,758,70,2014-10-02T18:05:00,3,28275303,183037
OK,60,69,758,60,2014-10-02T18:10:00,0,28275746,183037
OK,60,69,758,60,2014-10-02T18:15:00,0,28276192,183037
OK,113,36,758,113,2014-10-02T18:20:00,1,28276588,183037
OK,94,44,758,94,2014-10-02T18:35:00,1,28277037,183037
OK,94,44,758,94,2014-10-02T18:40:00,0,28277486,183037
OK,94,44,758,94,2014-10-02T18:45:00,2,28278285,183037
OK,101,41,758,101,2014-10-02T19:00:00,1,28278732,183037
OK,101,41,758,101,2014-10-02T19:05:00,0,28279181,183037
OK,101,41,758,101,2014-10-02T19:10:00,0,28279626,183037
OK,93,44,758,93,2014-10-02T19:15:00,2,28280067,183037
OK,64,64,758,64,2014-10-02T19:20:00,1,28280514,183037
OK,65,63,758,65,2014-10-02T19:25:00,0,28280918,183037
OK,65,63,758,65,2014-10-02T19:35:00,0,28281816,183037
OK,98,42,758,98,2014-10-02T19:40:00,2,28282248,183037
OK,74,56,758,74,2014-10-02T19:45:00,0,28282696,183037